Tiempo cada hora Abay (Saryagashskiy rayon)

Hoy, 22 Octubre, Jueves

Tiempo Temperatura Precipitaciones Viento Presión Humedad
00:00 +16°C° 0 mm 2 mps 733 mmHg 21%
01:00 +15°C° 0 mm 2 mps 733 mmHg 23%
02:00 +14°C° 0 mm 2 mps 733 mmHg 24%
03:00 +13°C° 0 mm 2 mps 733 mmHg 31%
04:00 +12°C° 0 mm 3 mps 734 mmHg 39%
05:00 +12°C° 0 mm 3 mps 734 mmHg 45%
06:00 +12°C° 0 mm 3 mps 735 mmHg 48%
07:00 +12°C° 0 mm 3 mps 735 mmHg 51%
08:00 +12°C° 0 mm 3 mps 736 mmHg 54%
09:00 +13°C° 0 mm 3 mps 736 mmHg 48%
10:00 +16°C° 0 mm 3 mps 736 mmHg 42%
11:00 +17°C° 0 mm 3 mps 736 mmHg 36%
12:00 +17°C° 0 mm 3 mps 735 mmHg 34%
13:00 +18°C° 0 mm 3 mps 735 mmHg 32%
14:00 +19°C° 0 mm 3 mps 734 mmHg 31%
15:00 +18°C° 0 mm 3 mps 734 mmHg 32%
16:00 +17°C° 0 mm 3 mps 734 mmHg 33%
17:00 +17°C° 0 mm 4 mps 734 mmHg 34%
18:00 +14°C° 0 mm 3 mps 734 mmHg 37%
19:00 +12°C° 0 mm 3 mps 734 mmHg 39%
20:00 +11°C° 0 mm 3 mps 734 mmHg 42%
21:00 +10°C° 0 mm 3 mps 734 mmHg 42%
22:00 +10°C° 0 mm 3 mps 734 mmHg 43%
23:00 +10°C° 0 mm 3 mps 733 mmHg 43%

Mañana, 23 Octubre, Viernes

Tiempo Temperatura Precipitaciones Viento Presión Humedad
00:00 +10°C° 0 mm 3 mps 733 mmHg 43%
01:00 +10°C° 0 mm 2 mps 733 mmHg 42%
02:00 +10°C° 0 mm 2 mps 733 mmHg 42%
03:00 +11°C° 0 mm 1 mps 734 mmHg 43%
04:00 +10°C° 0 mm 1 mps 734 mmHg 44%
05:00 +10°C° 0 mm 1 mps 734 mmHg 44%
06:00 +10°C° 0 mm 1 mps 735 mmHg 46%
07:00 +10°C° 0 mm 1 mps 735 mmHg 47%
08:00 +9°C° 0 mm 2 mps 736 mmHg 48%
09:00 +10°C° 0 mm 2 mps 736 mmHg 44%
10:00 +13°C° 0 mm 2 mps 736 mmHg 40%
11:00 +13°C° 0 mm 3 mps 736 mmHg 36%
12:00 +13°C° 0 mm 3 mps 736 mmHg 34%
13:00 +14°C° 0 mm 3 mps 736 mmHg 32%
14:00 +16°C° 0 mm 3 mps 736 mmHg 30%
15:00 +14°C° 0 mm 3 mps 737 mmHg 31%
16:00 +13°C° 0 mm 3 mps 737 mmHg 32%
17:00 +13°C° 0 mm 3 mps 737 mmHg 33%
18:00 +11°C° 0 mm 3 mps 738 mmHg 36%
19:00 +10°C° 0 mm 2 mps 738 mmHg 39%
20:00 +8°C° 0 mm 2 mps 738 mmHg 42%
21:00 +8°C° 0 mm 3 mps 738 mmHg 43%
22:00 +7°C° 0 mm 3 mps 738 mmHg 44%
23:00 +7°C° 0 mm 3 mps 738 mmHg 44%

Pasado mañana, 24 Octubre, Sábado

Tiempo Temperatura Precipitaciones Viento Presión Humedad
00:00 +7°C° 0 mm 3 mps 738 mmHg 44%
01:00 +7°C° 0 mm 2 mps 738 mmHg 44%
02:00 +7°C° 0 mm 2 mps 738 mmHg 44%
03:00 +7°C° 0 mm 2 mps 738 mmHg 44%
04:00 +7°C° 0 mm 3 mps 738 mmHg 44%
05:00 +7°C° 0 mm 3 mps 738 mmHg 44%
06:00 +8°C° 0 mm 3 mps 738 mmHg 43%
07:00 +8°C° 0 mm 2 mps 738 mmHg 42%
08:00 +8°C° 0 mm 2 mps 738 mmHg 40%
09:00 +10°C° 0 mm 2 mps 738 mmHg 36%
10:00 +13°C° 0 mm 2 mps 738 mmHg 32%
11:00 +15°C° 0 mm 2 mps 738 mmHg 28%
12:00 +15°C° 0 mm 2 mps 737 mmHg 28%
13:00 +16°C° 0 mm 2 mps 737 mmHg 27%
14:00 +16°C° 0 mm 2 mps 737 mmHg 26%
15:00 +16°C° 0 mm 2 mps 737 mmHg 27%
16:00 +14°C° 0 mm 3 mps 737 mmHg 29%
17:00 +13°C° 0 mm 3 mps 737 mmHg 30%
18:00 +12°C° 0 mm 3 mps 737 mmHg 33%
19:00 +11°C° 0 mm 3 mps 737 mmHg 36%
20:00 +9°C° 0 mm 3 mps 737 mmHg 39%
21:00 +9°C° 0 mm 3 mps 737 mmHg 40%
22:00 +8°C° 0 mm 3 mps 738 mmHg 42%
23:00 +8°C° 0 mm 3 mps 738 mmHg 43%

, 25 Octubre, Domingo

Tiempo Temperatura Precipitaciones Viento Presión Humedad
00:00 +7°C° 0 mm 2 mps 738 mmHg 43%
01:00 +7°C° 0 mm 2 mps 738 mmHg 44%
02:00 +7°C° 0 mm 2 mps 738 mmHg 45%
03:00 +8°C° 0 mm 1 mps 738 mmHg 45%
04:00 +8°C° 0 mm 1 mps 738 mmHg 46%
05:00 +8°C° 0 mm 1 mps 738 mmHg 46%
06:00 +9°C° 0 mm 1 mps 738 mmHg 44%
07:00 +9°C° 0 mm 1 mps 738 mmHg 42%
08:00 +10°C° 0 mm 1 mps 738 mmHg 40%
09:00 +12°C° 0 mm 1 mps 738 mmHg 35%
10:00 +13°C° 0 mm 0 mps 738 mmHg 31%
11:00 +15°C° 0 mm 0 mps 738 mmHg 27%
12:00 +16°C° 0 mm 0 mps 738 mmHg 25%
13:00 +18°C° 0 mm 0 mps 738 mmHg 23%
14:00 +19°C° 0 mm 0 mps 738 mmHg 21%
15:00 +20°C° 0 mm 1 mps 737 mmHg 22%
16:00 +19°C° 0 mm 1 mps 737 mmHg 24%
17:00 +18°C° 0 mm 1 mps 737 mmHg 25%
18:00 +15°C° 0 mm 1 mps 737 mmHg 28%
19:00 +14°C° 0 mm 2 mps 737 mmHg 31%
20:00 +12°C° 0 mm 2 mps 737 mmHg 34%
21:00 +12°C° 0 mm 2 mps 736 mmHg 34%
22:00 +12°C° 0 mm 2 mps 736 mmHg 35%
23:00 +12°C° 0 mm 2 mps 736 mmHg 35%

25 Octubre, Domingo

Tiempo Temperatura Precipitaciones Viento Presión Humedad
00:00 +7°C° 0 mm 2 mps 738 mmHg 43%
01:00 +7°C° 0 mm 2 mps 738 mmHg 44%
02:00 +7°C° 0 mm 2 mps 738 mmHg 45%
03:00 +8°C° 0 mm 1 mps 738 mmHg 45%
04:00 +8°C° 0 mm 1 mps 738 mmHg 46%
05:00 +8°C° 0 mm 1 mps 738 mmHg 46%
06:00 +9°C° 0 mm 1 mps 738 mmHg 44%
07:00 +9°C° 0 mm 1 mps 738 mmHg 42%
08:00 +10°C° 0 mm 1 mps 738 mmHg 40%
09:00 +12°C° 0 mm 1 mps 738 mmHg 35%
10:00 +13°C° 0 mm 0 mps 738 mmHg 31%
11:00 +15°C° 0 mm 0 mps 738 mmHg 27%
12:00 +16°C° 0 mm 0 mps 738 mmHg 25%
13:00 +18°C° 0 mm 0 mps 738 mmHg 23%
14:00 +19°C° 0 mm 0 mps 738 mmHg 21%
15:00 +20°C° 0 mm 1 mps 737 mmHg 22%
16:00 +19°C° 0 mm 1 mps 737 mmHg 24%
17:00 +18°C° 0 mm 1 mps 737 mmHg 25%
18:00 +15°C° 0 mm 1 mps 737 mmHg 28%
19:00 +14°C° 0 mm 2 mps 737 mmHg 31%
20:00 +12°C° 0 mm 2 mps 737 mmHg 34%
21:00 +12°C° 0 mm 2 mps 736 mmHg 34%
22:00 +12°C° 0 mm 2 mps 736 mmHg 35%
23:00 +12°C° 0 mm 2 mps 736 mmHg 35%

26 Octubre, Lunes

Tiempo Temperatura Precipitaciones Viento Presión Humedad
00:00 +12°C° 0 mm 2 mps 736 mmHg 34%
01:00 +12°C° 0 mm 2 mps 735 mmHg 34%
02:00 +10°C° 0 mm 2 mps 735 mmHg 34%
03:00 +10°C° 0 mm 2 mps 735 mmHg 33%
04:00 +10°C° 0 mm 2 mps 735 mmHg 33%
05:00 +10°C° 0 mm 2 mps 735 mmHg 33%
06:00 +10°C° 0 mm 2 mps 735 mmHg 31%
07:00 +12°C° 0 mm 1 mps 735 mmHg 30%
08:00 +13°C° 0 mm 1 mps 735 mmHg 28%
09:00 +15°C° 0 mm 1 mps 734 mmHg 24%
10:00 +19°C° 0 mm 1 mps 734 mmHg 20%
11:00 +22°C° 0 mm 1 mps 734 mmHg 16%
12:00 +23°C° 0 mm 1 mps 734 mmHg 15%
13:00 +24°C° 0 mm 1 mps 733 mmHg 13%
14:00 +25°C° 0 mm 2 mps 733 mmHg 12%
15:00 +24°C° 0 mm 1 mps 733 mmHg 13%
16:00 +22°C° 0 mm 1 mps 732 mmHg 14%
17:00 +21°C° 0 mm 1 mps 732 mmHg 16%
18:00 +20°C° 0 mm 1 mps 731 mmHg 18%
19:00 +18°C° 0 mm 1 mps 731 mmHg 20%
20:00 +15°C° 0 mm 2 mps 731 mmHg 22%
21:00 +15°C° 0 mm 1 mps 730 mmHg 23%
22:00 +14°C° 0 mm 1 mps 730 mmHg 23%
23:00 +14°C° 0 mm 1 mps 730 mmHg 23%

27 Octubre, Martes

Tiempo Temperatura Precipitaciones Viento Presión Humedad
00:00 +14°C° 0 mm 1 mps 729 mmHg 23%
01:00 +13°C° 0 mm 1 mps 729 mmHg 23%
02:00 +13°C° 0 mm 1 mps 729 mmHg 23%
03:00 +13°C° 0 mm 1 mps 729 mmHg 24%
04:00 +13°C° 0 mm 1 mps 729 mmHg 24%
05:00 +12°C° 0 mm 1 mps 729 mmHg 25%
06:00 +13°C° 0 mm 1 mps 729 mmHg 24%
07:00 +13°C° 0 mm 1 mps 729 mmHg 23%
08:00 +14°C° 0 mm 2 mps 729 mmHg 23%
09:00 +16°C° 0 mm 2 mps 729 mmHg 21%
10:00 +18°C° 0 mm 3 mps 729 mmHg 19%
11:00 +21°C° 0 mm 4 mps 729 mmHg 16%
12:00 +22°C° 0 mm 4 mps 729 mmHg 16%
13:00 +22°C° 0 mm 3 mps 729 mmHg 15%
14:00 +24°C° 0 mm 3 mps 728 mmHg 14%
15:00 +22°C° 0 mm 3 mps 728 mmHg 15%
16:00 +21°C° 0 mm 2 mps 728 mmHg 17%
17:00 +19°C° 0 mm 2 mps 728 mmHg 18%
18:00 +18°C° 0 mm 2 mps 728 mmHg 19%
19:00 +18°C° 0 mm 2 mps 728 mmHg 20%
20:00 +17°C° 0 mm 2 mps 729 mmHg 20%
21:00 +15°C° 0 mm 4 mps 730 mmHg 29%
22:00 +13°C° 0 mm 6 mps 730 mmHg 37%
23:00 +11°C° 0 mm 8 mps 731 mmHg 45%
Mostrar más

Necesitamos Su Consentimiento

Meteoprog y nuestros Proveedores de Servicios pueden almacenar y acceder a sus datos personales como cookies, identificadores de dispositivo u otras tecnologías similares de su dispositivo y procesar dichos datos para personalizar contenido y anuncios, además de ofrecer funciones de redes sociales y analizar el tráfico.

  • Almacenar y/o acceder a información en su dispositivo

    Se puede almacenar o acceder a cookies, identificadores de dispositivo u otra información de su dispositivo para los fines anteriormente indicados.

  • Anuncios y contenido personalizados, medición de anuncios y contenido, percepciones del público, y desarrollo de productos

    Los anuncios y el contenido pueden personalizarse en base a su perfil. Se pueden añadir más datos para personalizar mejor los anuncios y contenidos. Se puede medir el rendimiento de los anuncios y contenidos. Se puede obtener la percepción sobre el público que ha visto los anuncios y contenidos. Dichos datos pueden usarse para desarrollar o mejorar la experiencia del usuario, sistemas y software.

Al hacer clic en ‘Estoy De Acuerdo’ usted permitirá el uso de las cookies, identificadores de dispositivo, balizas web u otras tecnologías similares indicadas. Su configuración puede cambiarse desde el navegador de su dispositivo.

Para ciertos fines, los intereses legítimos pueden ser considerados por encima del consentimiento. Puede leer más sobre ello en nuestra Política de Privacidad y Cookies.